Showing default

HULIANWANG DIGUI-70, 65230

Orbit data source: Space-Track

HULIANWANG DIGUI-70, 65230 is a payload satellite owned by Zhongguo Xingwang (CN) in LEO that was launched on Sun, 17 Aug 2025 UTC via a CHANG ZHENG 6A launch vehicle from the Taiyaun Space Center, China (TSC). Payload-class satellites include a variety of spacecraft equipped with specific instruments for various scientific and technological missions. These include communications satellites like Starlink; space stations such as the ISS; scientific satellites like the Hubble; Earth observation satellites from companies like Planet Labs, Umbra, and HawkEye 360; GPS; miniature CubeSats for education and research; and military/defense satellites.

Loading next visibility...
Identifier
65230, 2025-178C
Orbit
LEO
Country
Flag of CNCN / PRC
Related business
Manufacturer
CAST
Mission
Operational Civil Communications
Bus & Motor
XINGWANG C, Unknown motor
Mass
~800 kg wet, ~800 kg dry
Launch date (UTC)
2025-08-17 (10 months ago)
Launch vehicle
CHANG ZHENG 6A
Launch site
Taiyaun Space Center, China (TSC)
Object type
Payload
Rocket body
Debris
Shape & HBR
Box + 2 Pan, 2.5 m
Radar Cross Section
5.935 m², Large (>1 m²)

Expand to show TLE details & history
Last TLE update: 10 hours ago

TLE from 10 hours ago
0 HULIANWANG DIGUI-70
1 65230U 25178C   26171.43950652  .00000037  00000-0  53055-4 0  9992
2 65230  86.4938  12.2880 0001991  92.4782 267.6580 13.24411095 40748
Epoch: 2026-06-20T10:32Z
TLE epoch observation values (Epoch: 2026-06-20T10:32:53.363Z)
Latitude
-0.00001°
Longitude
-54.58846°
Altitude
1,170.874 km
Speed
7.268 km/s
True Right ascension
00h 49m 09s
True Declination
0° 00' 00"
Sunlit
Object was in daylight at epoch
Visualization orbit readout
Latitude
Unknown
Longitude
Unknown
Altitude
Unknown
Speed
Unknown
Apparent Right ascension
Unknown
Apparent Declination
Unknown
Sunlit
N/A
Visualization observer readout
Local Sidereal Time
07:16:39
Azimuth
Unknown
Elevation
Unknown
Doppler factor
Unknown
Orbital elements
Apogee altitude
1,166.54 km
Perigee altitude
1,163.536 km
Semi-major axis
7,543.175 km
Eccentricity
0.0002
Inclination
86.4938°
RAAN
12.288°
Arg. of periapsis
92.4782°
True anomaly
267.6352°
Mean anomaly
267.658°
Eccentric anomaly
267.6466°
Mean motion
3.31293 °/min
Orbital period
108.67 mins
BSTAR
0.000053055
Loading maneuver chart data...
Computing Atmospheric mass density...
Loading historical data...
Loading historical data...
Loading historical data...
Loading historical data...
Loading historical data...
Loading historical data...
Loading historical data...

Documentation

Showing up to 5 results
|